Location: Artiguedieu
(43.5000°N, 0.5454°E)
Time: 08:03:57
(UTC+00:00)

Explorer 7 - Pass Details

Date: 02 August 2021
Orbit: 484 x 676 km, 50.3° (Epoch: 22 September)

Event Time Altitude Azimuth Distance (km) Brightness Sun altitude
Rises 03:37:04 0° 206° (SSW) 2,530 - -11.8°
Reaches altitude 10° 03:39:28 10° 193° (SSW) 1,660 - -11.4°
Exits shadow 03:39:36 11° 192° (SSW) 1,619 8.8 -11.4°
Maximum altitude 03:42:34 25° 137° (SE) 1,031 8.3 -11.0°
Drops below altitude 10° 03:45:44 10° 81° (E) 1,707 10.4 -10.5°
Sets 03:48:14 0° 68° (ENE) 2,622 12.1 -10.2°
